Weather in Melitopol

Ukraine / Zaporizhia Region     46˚50′31″N   35˚22′22″E
temp.,
°C
wind,
m/s
gust,
m/s
humid.,
%
clouds,
%
prec.,
mm/h
press.,
hPa
HPBL,
m
2 december, wed
wed223:00+5˚e71281100 0.0 1022590
02:00+5˚e7118099 0.0 1022617
05:00+4˚e61077100 0.0 1023628
08:00+4˚e61080100 0.0 1024627
11:00+4˚e61078100 0.0 1024621
14:00+5˚e697899 0.0 1023573
17:00+4˚e597998 0.0 1024533
20:00+5˚e5108099 0.0 1024529
3 december, thu
thu323:00+6˚e51083100 0.0 1025487
02:00+5˚ese499394 0.0 1025333
05:00+6˚ese598998 0.0 1025371
08:00+6˚ese688697 0.0 1026441
11:00+7˚ese5779100 0.0 1025531
14:00+7˚e5679100 0.0 1025583
17:00+6˚e5680100 0.0 1025537
20:00+5˚ene488490 0.0 1025362
4 december, fri
fri423:00+4˚ene499419 0.0 1024246
02:00+3˚ene49949 0.0 1024253
05:00+3˚ene499416 0.0 1024273
08:00+3˚e5119326 0.0 1024415
11:00+6˚ese7107990 0.0 1024539
14:00+7˚e6107586 0.0 1023554
17:00+4˚e6138638 0.0 1023504
20:00+4˚e6148839 0.0 1024488
5 december, sat
sat523:00+4˚e6139031 0.0 1024444
02:00+3˚e5129131 0.0 1025447
05:00+3˚e6139143 0.0 1025481
08:00+3˚e7128557 0.0 1026524
11:00+5˚e697795 0.0 1026635
14:00+5˚e797297 0.0 1025689
17:00+3˚e71075100 0.0 1026723
20:00+3˚e71073100 0.0 1027893
6 december, sun
sun623:00+3˚e71070100 0.0 1027895
02:00+1˚ene71167100 0.0 1027695
05:00ene7126995 0.0 1027604
08:00−1˚ene7136670 0.0 1027567
11:00+2˚e7126237 0.0 1027670
14:00+3˚e7106026 0.0 1026718
17:00ene612610 0.0 1026641
20:00−1˚ene613712 0.0 1026642